Zurück zum Katalog

DELTA 1 DEB

AktivSSO
NORAD 21292·DEBRIS·🇺🇸 United States

Gestartet Jun 12, 1975 von Vandenberg Space Force Base

Loading…

Nächste Überflüge (nächste 24 Stunden)

TLE

AktuellSource: Space-Track

Epoche: Sep 14, 2026, 11:34 UTC

1 21292U 75052AD  26257.48202812 -.00000006  00000-0  45918-4 0  9992
2 21292  99.7613 132.8109 0222345 214.0382 270.2052 13.58671502749562

Verfolge DELTA 1 DEB in Echtzeit mit AllMySat

Download on the App Store